Flag for Equatorial Guinea Weather past 2 weeks in Malabo, Equatorial Guinea

Now
79 °F

Thunderstorms. Passing clouds.


Feels Like: 83 °F
Forecast: 76 / 80 °F
Wind: 1 mph from North

Location: Malabo/Fernando Poo

Current Time: May 23, 2015 at 2:45:03 AM

Latest Report: May 23, 2015 at 1:00 AM


Visibility: N/A

Pressure: 29.92 "Hg

Humidity: 94%

Dew point: 77 °F

Location of MalaboLocation

Historic Weather in Malabo — Graph

°F

Malabo temperature yesterday

Maximum temperature yesterday: 90 °F (at 3:00 PM)
Minimum temperature yesterday: 75 °F (at 7:00 AM)
Average temperature yesterday: 82 °F

Past Weeks' High & Low Weather Summary

 TemperatureHumidityPressure
High91 °F (May 11, 1:00 PM)100% (May 8, 4:00 AM)29.98 "Hg (May 8, 4:00 AM)
Low72 °F (May 18, 7:00 AM)63% (May 9, 12:00 PM)29.77 "Hg (May 13, 5:00 PM)
Average81 °F85%29.89 "Hg
* Reported May 8 1:00 AM — May 23 1:00 AM, Malabo, Weather by CustomWeather, © 2015

Note: Actual official high and low records may vary slightly from our data, if they occured in-between our weather recording intervals... More about our weather records

Advertising

Malabo weather history for previous 24 hours

 ConditionsComfort  
Time TempWeatherWind HumidityBarometerVisibility
1:00 AM
Sat, May 23
79 °FThunderstorms. Passing clouds.1 mph94%29.92 "HgN/A
12:00 AM79 °FPassing clouds.No wind94%29.95 "HgN/A
11:00 PM
Fri, May 22
81 °FPassing clouds.No wind89%29.92 "HgN/A
10:00 PM81 °FPassing clouds.No wind89%29.92 "HgN/A
9:00 PM81 °FPassing clouds.7 mph89%29.92 "HgN/A
8:00 PM82 °FPassing clouds.8 mph89%29.89 "HgN/A
4:00 PM88 °FScattered clouds.13 mph75%29.86 "HgN/A
3:00 PM90 °FScattered clouds.10 mph71%29.89 "HgN/A
2:00 PM88 °FScattered clouds.9 mph70%29.89 "HgN/A
1:00 PM88 °FScattered clouds.3 mph70%29.92 "HgN/A
12:00 PM88 °FScattered clouds.5 mph70%29.95 "HgN/A
11:00 AM88 °FPassing clouds.5 mph70%29.95 "HgN/A
9:00 AM82 °FPassing clouds.No wind79%29.95 "HgN/A
8:00 AM79 °FPassing clouds.No wind94%29.95 "HgN/A
7:00 AM75 °FPassing clouds.No wind94%29.92 "HgN/A
6:00 AM77 °FPassing clouds.No wind89%29.89 "HgN/A
5:00 AM77 °FPassing clouds.No wind94%29.89 "HgN/A
4:10 AM77 °FPassing clouds.No wind94%29.89 "HgN/A
3:00 AM77 °FPassing clouds.No wind94%29.92 "HgN/A
2:00 AM79 °FPassing clouds.No wind89%29.92 "HgN/A
Weather by CustomWeather, © 2015

See weather overviewHow to use our weather pages